Flag for Germany Weather past 2 weeks in Ibbenbüren, North Rhine-Westphalia, Germany

Now
79 °F

Sunny.


Feels Like: 80 °F
Forecast: 72 / 87 °F
Wind: 8 mph from Southeast

Location: Muenster / Osnabrueck

Current Time: Jul 2, 2015 at 10:12:39 AM

Latest Report: Jul 2, 2015 at 9:20 AM


Visibility: 10 mi

Pressure: 30.09 "Hg

Humidity: 51%

Dew point: 59 °F

Location of IbbenbürenLocation

Historic Weather in Ibbenbüren — Graph

°F

Ibbenbüren temperature yesterday

Maximum temperature yesterday: 90 °F (at 4:20 PM)
Minimum temperature yesterday: 61 °F (at 3:20 AM)
Average temperature yesterday: 77 °F

Past Weeks' High & Low Weather Summary

 TemperatureHumidityPressure
High90 °F (Jul 1, 4:20 PM)100% (Jun 18, 2:20 AM)30.27 "Hg (Jun 18, 2:20 AM)
Low46 °F (Jun 23, 3:50 AM)25% (Jul 1, 2:20 PM)29.65 "Hg (Jun 22, 8:50 PM)
Average62 °F72%30.05 "Hg
* Reported Jun 17 8:20 AM — Jul 2 8:50 AM, Ibbenbüren, Weather by CustomWeather, © 2015

Note: Actual official high and low records may vary slightly from our data, if they occured in-between our weather recording intervals... More about our weather records

Advertising

Ibbenbüren weather history for previous 24 hours

 ConditionsComfort  
Time TempWeatherWind HumidityBarometerVisibility
8:50 AM
Thu, Jul 2
79 °FSunny.7 mph48%30.09 "Hg10 mi
8:20 AM77 °FSunny.9 mph51%30.09 "Hg10 mi
7:50 AM75 °FSunny.8 mph54%30.09 "Hg10 mi
7:20 AM73 °FSunny.7 mph53%30.09 "Hg10 mi
6:50 AM72 °FSunny.7 mph57%30.09 "Hg10 mi
6:20 AM72 °FSunny.6 mph53%30.09 "Hg10 mi
5:20 AM72 °FClear.7 mph53%30.07 "Hg10 mi
4:50 AM72 °FClear.7 mph53%30.07 "Hg10 mi
4:20 AM72 °FClear.7 mph53%30.07 "Hg10 mi
3:50 AM72 °FClear.8 mph53%30.07 "Hg10 mi
3:20 AM72 °FClear.7 mph53%30.07 "Hg10 mi
2:50 AM72 °FClear.7 mph53%30.09 "Hg10 mi
2:20 AM73 °FClear.7 mph50%30.09 "Hg10 mi
1:50 AM73 °FClear.6 mph50%30.09 "Hg10 mi
1:20 AM73 °FClear.7 mph53%30.07 "Hg10 mi
12:50 AM75 °FClear.7 mph50%30.07 "Hg10 mi
11:50 PM
Wed, Jul 1
77 °FClear.8 mph51%30.07 "Hg10 mi
11:20 PM77 °FClear.7 mph51%30.07 "Hg10 mi
10:50 PM79 °FSunny.7 mph45%30.07 "Hg10 mi
10:20 PM79 °FSunny.8 mph45%30.07 "Hg10 mi
9:50 PM81 °FSunny.8 mph42%30.07 "Hg10 mi
9:20 PM82 °FSunny.9 mph40%30.04 "Hg10 mi
8:50 PM84 °FSunny.9 mph37%30.04 "Hg10 mi
8:20 PM86 °FSunny.10 mph33%30.04 "Hg10 mi
7:50 PM86 °FSunny.10 mph35%30.04 "Hg10 mi
7:20 PM88 °FSunny.10 mph33%30.04 "Hg10 mi
6:50 PM88 °FSunny.9 mph33%30.04 "Hg10 mi
6:20 PM90 °FSunny.10 mph29%30.04 "Hg10 mi
5:50 PM90 °FSunny.10 mph31%30.04 "Hg10 mi
5:20 PM90 °FSunny.10 mph29%30.04 "Hg10 mi
4:50 PM88 °FSunny.9 mph29%30.07 "Hg10 mi
4:20 PM90 °FSunny.8 mph29%30.07 "Hg10 mi
3:50 PM88 °FSunny.10 mph27%30.07 "Hg10 mi
3:20 PM88 °FSunny.9 mph29%30.07 "Hg10 mi
2:50 PM86 °FSunny.9 mph29%30.07 "Hg10 mi
2:20 PM88 °FSunny.10 mph25%30.09 "Hg10 mi
1:50 PM86 °FSunny.10 mph29%30.09 "Hg10 mi
1:20 PM86 °FSunny.9 mph31%30.09 "Hg10 mi
12:50 PM84 °FSunny.10 mph33%30.09 "Hg10 mi
12:20 PM84 °FSunny.8 mph33%30.09 "Hg10 mi
11:50 AM82 °FSunny.9 mph40%30.09 "Hg10 mi
11:20 AM81 °FSunny.9 mph42%30.12 "Hg10 mi
10:50 AM79 °FSunny.7 mph48%30.12 "Hg10 mi
10:20 AM77 °FSunny.7 mph44%30.12 "Hg10 mi
Weather by CustomWeather, © 2015

See weather overviewHow to use our weather pages